Back to catalog

THORAD AGENA D DEB

AlivePO
NORAD 42503·DEBRIS·🇺🇸 United States

Launched Apr 8, 1970 from Vandenberg Space Force Base

Loading…

Next Passes (next 24 hours)

TLE

AgingSource: Space-Track

Epoch: Sep 8, 2026, 06:51 UTC

1 42503U 70025RH  26251.28564003  .00000668  00000-0  61160-3 0  9999
2 42503  99.9418 275.0617 0014623 271.4704  88.4775 13.87115454645884

Track THORAD AGENA D DEB in real time with AllMySat

Download on the App Store